Simultaneous Nadir Overpasses (SNOs) Predictions

Prediction of SNOs between LANDSAT-8 and METOP-B Satellite Orbit:

Table of predicted SNOs for the next 14.0 days since TLE Epoch: 6/22/2024
Index Date (LANDSAT-8) Time (LANDSAT-8) Lat,Lon (LANDSAT-8) SZA (LANDSAT-8 ) Date (METOP-B) Time (METOP-B) Lat,Lon (METOP-B) SZA (METOP-B ) Distance(km) Time Diff (sec)
1 06/24/2024 02:09:05 81.37,-167.99 60.47 06/24/2024 02:08:09 81.37,-167.90 60.46 1.53 56
2 06/24/2024 02:58:32 -81.37, -0.42 119.54 06/24/2024 02:58:50 -81.37, -0.56 119.55 2.42 18
3 06/26/2024 21:43:22 81.36,-101.69 60.53 06/26/2024 21:42:41 81.36,-101.87 60.49 2.99 41
4 06/26/2024 22:32:48 -81.38, 66.28 119.43 06/26/2024 22:33:20 -81.37, 66.29 119.42 0.65 32
5 06/29/2024 17:17:38 81.36, -35.22 60.66 06/29/2024 17:17:11 81.37, -35.14 60.66 1.44 27
6 06/29/2024 18:07:04 -81.38, 132.77 119.29 06/29/2024 18:07:51 -81.37, 132.65 119.29 2.11 47
7 07/02/2024 12:51:52 81.37, 31.42 60.87 07/02/2024 12:51:40 81.37, 31.51 60.87 1.49 12
8 07/02/2024 13:41:19 -81.37,-160.95 119.13 07/02/2024 13:42:21 -81.37,-161.06 119.12 1.83 62
9 07/05/2024 07:36:42 -81.35, -70.20 118.96 07/05/2024 07:35:32 -81.36, -70.23 118.99 0.88 70



Historial Predications of SNOs between LANDSAT-8 and METOP-B
